This is the latest recevied weather packets stored in our database for station/object SQ3MKP-13. If no packets are shown the sender has not sent any weather packets the latest 10 day(s).
| Time | Temp. | Humidity | Pressure | Rain* | Wind** | Luminosity | Snow |
|---|---|---|---|---|---|---|---|
| 1777710054 | 21.11° C | 44% | 1014.3 hPa | - | - | 564 W/m² | - |
| 1777709753 | 20.56° C | 45% | 1014.3 hPa | - | - | 555 W/m² | - |
| 1777709452 | 20.56° C | 48% | 1014.3 hPa | - | - | 544 W/m² | - |
| 1777709152 | 20° C | 46% | 1014.3 hPa | - | - | 533 W/m² | - |
| 1777708851 | 20° C | 48% | 1014.3 hPa | - | - | 520 W/m² | - |
| 1777708550 | 19.44° C | 48% | 1014.4 hPa | - | - | 509 W/m² | - |
| 1777708249 | 20° C | 46% | 1014.4 hPa | - | - | 501 W/m² | - |
| 1777707948 | 19.44° C | 47% | 1014.4 hPa | - | - | 492 W/m² | - |
| 1777707647 | 18.89° C | 49% | 1014.4 hPa | - | - | 478 W/m² | - |
| 1777707347 | 18.89° C | 49% | 1014.4 hPa | - | - | 468 W/m² | - |
| 1777707045 | 18.89° C | 48% | 1014.4 hPa | - | - | 456 W/m² | - |
| 1777706745 | 18.33° C | 48% | 1014.4 hPa | - | - | 441 W/m² | - |
| 1777706444 | 17.78° C | 50% | 1014.4 hPa | - | - | 427 W/m² | - |
| 1777706143 | 17.78° C | 52% | 1014.3 hPa | - | - | 412 W/m² | - |
| 1777705842 | 17.78° C | 52% | 1014.4 hPa | - | - | 401 W/m² | - |
| 1777705541 | 17.78° C | 50% | 1014.4 hPa | - | - | 391 W/m² | - |
| 1777705240 | 16.67° C | 54% | 1014.5 hPa | - | - | 378 W/m² | - |
| 1777704939 | 16.67° C | 55% | 1014.5 hPa | - | - | 366 W/m² | - |
| 1777704638 | 16.67° C | 54% | 1014.5 hPa | - | - | 350 W/m² | - |
| 1777704337 | 16.11° C | 56% | 1014.5 hPa | - | - | 335 W/m² | - |
| 1777704036 | 15.56° C | 57% | 1014.5 hPa | - | - | 319 W/m² | - |
| 1777703736 | 15° C | 57% | 1014.5 hPa | - | - | 193 W/m² | - |
| 1777703435 | 15° C | 58% | 1014.6 hPa | - | - | 299 W/m² | - |
| 1777703133 | 15° C | 55% | 1014.6 hPa | - | - | 275 W/m² | - |
| 1777702833 | 14.44° C | 59% | 1014.6 hPa | - | - | 63 W/m² | - |
* Rain since midnight (hover to see other rain measurements)
** Current wind speed in m/s (hover to see current wind gust speed)